Location: Brantley
(31.5822°N, 86.2569°W)
Time: 05:38:17
(UTC+00:00)

Vanguard 2 - Pass Details

Date: 23 February 2026
Orbit: 553 x 2896 km, 32.9° (Epoch: 5 March)

Event Time Altitude Azimuth Distance (km) Brightness Sun altitude
Rises 15:43:03 0° 271° (W) 2,779 10.1 37.6°
Reaches altitude 10° 15:45:59 10° 249° (WSW) 1,818 9.4 38.0°
Maximum altitude 15:48:30 16° 208° (SSW) 1,476 9.4 38.4°
Drops below altitude 10° 15:51:09 10° 168° (SSE) 1,919 10.5 38.7°
Sets 15:54:24 0° 147° (SSE) 3,019 11.5 39.2°
